Regional Weather Roundup
Issued by NWS

Home | Current Version | Previous Version | Graphics & Text | Print | Product List | Glossary On
Versions: 1 2 3 4 5 6 7 8 9 10 11 12 13 14 15 16 17 18 19 20 21 22 23 24 25 26 27 28 29 30 31 32 33 34 35 36 37 38 39 40 41 42 43 44 45 46 47 48 49 50
000
ASUS43 KIND 252209
RWRIN

WEATHER ROUNDUP FOR INDIANA
NATIONAL WEATHER SERVICE INDIANAPOLIS IN
600 PM EDT MON SEP 25 2017

NOTE: "FAIR" INDICATES FEW OR NO CLOUDS BELOW 12,000 FEET WITH NO
SIGNIFICANT WEATHER AND/OR OBSTRUCTIONS TO VISIBILITY.

* - STATION DOES NOT REPORT WEATHER SUCH AS PRECIPITATION OR FOG.

+ - STATION NOT QUALITY CONTROLLED BY THE NATIONAL WEATHER SERVICE.
    USE DATA WITH CAUTION...ESPECIALLY DEWPOINT AND RELATIVE
    HUMIDITY OBSERVATIONS.

INZ001>003-010>013-019-020-252300-
NORTHWEST INDIANA

CITY           SKY/WX    TMP DP  RH WIND       PRES   REMARKS
GARY /AIRPORT/ MOSUNNY   90  46  22 SE8       29.94S
KNOX *+        SUNNY     88  54  31 E7        29.95S
LA PORTE +     SUNNY     88  53  30 E7        29.97S
MICHIGAN CITY+ SUNNY     86  55  35 SE3       29.96S
MONTICELLO +   SUNNY     87  54  31 S3        29.94F
RENSSELAER +   SUNNY     88  34  14 SE7       29.94S
VALPARAISO     SUNNY     89  55  31 SE8       29.95F

$$

LMZ046-743>745-252300-
SOUTHERN LAKE MICHIGAN

STATION/POSITION TIME  TEMP    WIND        PRES    WAVE
                       AIR SEA DIR/SP/G            HT
                 (UTC) (F)     (DEG/KT/KT) (MB)    (FT)
BURNS HARBOR     2140   85      90/  6/ 11 1013.9F
MICHIGAN CITY    2140   82      50/  4/  5   N/A
5NW MICH CITY    2200   78 74   60/  4/  6   N/A     0

$$

INZ004-005-014>016-021>024-252300-
NORTH CENTRAL INDIANA

CITY           SKY/WX    TMP DP  RH WIND       PRES   REMARKS
ELKHART        SUNNY     86  55  35 CALM      29.97S
GOSHEN         SUNNY     87  51  28 S9        29.97F
LOGANSPORT +   SUNNY     88  54  31 S6        29.96S
PERU/GRISSOM   SUNNY     88  57  34 S5        29.96S
SOUTH BEND     SUNNY     86  53  32 S10       29.97S
WARSAW +       SUNNY     84  55  37 CALM      29.97S

$$

INZ006>009-017-018-025>027-252300-
NORTHEAST INDIANA

CITY           SKY/WX    TMP DP  RH WIND       PRES   REMARKS
AUBURN +       SUNNY     86  55  35 CALM      29.99S
FORT WAYNE     MOSUNNY   87  59  38 E8        29.98S
HUNTINGTON +   SUNNY     87  56  35 CALM      29.97S
KENDALLVILLE + SUNNY     85  58  40 S5        29.99S

$$

INZ028-029-035-036-043>045-051>053-252300-
WEST CENTRAL INDIANA

CITY           SKY/WX    TMP DP  RH WIND       PRES   REMARKS
GREENCASTLE +  SUNNY     86  57  37 S3        29.96F
LAFAYETTE      SUNNY     86  60  41 E7        29.93F
TERRE HAUTE    MOSUNNY   89  60  37 E6        29.94S

$$

INZ030>032-037>040-046>048-054>057-064-065-252300-
CENTRAL INDIANA

CITY           SKY/WX    TMP DP  RH WIND       PRES   REMARKS
CP ATTERBURY + SUNNY     88  59  37 CALM      29.97S
COLUMBUS       MOSUNNY   86  48  26 CALM      29.97F
FRANKFORT +    CLOUDY    91  58  32 CALM      29.97F
GREENWOOD *+   SUNNY     91  60  35 NE3       29.97F
INDIANAPOLIS   MOSUNNY   88  57  34 SE5       29.96F
-EAGLE CREEK   SUNNY     88  56  33 CALM      29.95F
KOKOMO +       SUNNY     86  62  44 S6        29.98S
MT COMFORT *+  SUNNY     88  57  35 W3        29.98S
SHELBYVILLE    SUNNY     90  56  31 CALM      29.96F
ZIONSVILLE +   SUNNY     86  57  37 CALM      29.97F

$$

INZ033-034-041-042-049-050-058-059-252300-
EAST CENTRAL INDIANA

CITY           SKY/WX    TMP DP  RH WIND       PRES   REMARKS
MUNCIE         SUNNY     88  57  34 SE6       29.98S
RICHMOND +     MOSUNNY   82  59  44 SW5       30.01S

$$

INZ060-061-067>069-081>083-085>088-252300-
SOUTHWEST INDIANA

CITY           SKY/WX    TMP DP  RH WIND       PRES   REMARKS
EVANSVILLE     MOSUNNY   88  62  41 VRB3      29.94S
HUNTINGBURG +  PTSUNNY   88  68  51 E5        29.95S
WASHINGTON +   MOSUNNY   87  60  39 CALM      29.93F

$$

INZ062-063-066-070>080-084-089>092-252300-
SOUTH CENTRAL AND SOUTHEAST INDIANA

CITY           SKY/WX    TMP DP  RH WIND       PRES   REMARKS
BEDFORD +      PTSUNNY   86  61  42 SE6       29.95F
BLOOMINGTON    MOSUNNY   88  60  38 SE7       29.96F
MADISON *+     PTSUNNY   86  63  45 CALM      30.00S
NORTH VERNON + MOSUNNY   86  61  42 SE3       29.98F
SEYMOUR +      SUNNY     90  63  40 SE5       29.96F

$$





USA.gov is the U.S. government's official web portal to all federal, state and local government web resources and services.